Volver al catálogo

THORAD DELTA 1 DEB

ActivoLEO
NORAD 8560·DEBRIS·🇺🇸 United States

Lanzado Nov 15, 1974 desde Vandenberg Space Force Base

Loading…

Próximos Pases (próximas 24 horas)

TLE

ActualizadoSource: Space-Track

Época: Sep 14, 2026, 07:14 UTC

1 08560U 74089CX  26257.30138993  .00000279  00000-0  43802-3 0  9993
2 08560 102.1173 211.0625 0402248 134.2814 229.2050 13.32831467505633

Sigue THORAD DELTA 1 DEB en tiempo real con AllMySat

Download on the App Store